World > North America > United States > Michigan
Hourly regional weather for Harbor Beach, MichiganHarbor Beach, Michigan Regional Hourly Weather

Harbor Beach, Michigan Regional Weather

regional weather harbor beach, miHOURLY REGIONAL WEATHER FOR HARBOR BEACH, MI
Lat: 43.85N, Lon: 82.65W 
Web Search

Helpful Tip: Abbreviated, 7 Day, 14 Day Forecasts. There is a weather forecast for every taste.

Feedback


°F Click to change Harbor Beach hourly weather to Imperial units.Click to change Harbor Beach hourly weather to Metric units. °C
Harbor Beach Weather Map
UTC Time: 10/18/2021, 21:20
Your Time:

Harbor Beach, MI Regional Weather

Expires:202110182200;;896199
ASUS43 KDTX 182110
RWRMI 
MICHIGAN HOURLY REGIONAL WEATHER ROUNDUP
NATIONAL WEATHER SERVICE DETROIT/PONTIAC MI
500 PM EDT MON OCT 18 2021

NOTE: "FAIR" INDICATES FEW OR NO CLOUDS BELOW 12,000 FEET WITH NO
SIGNIFICANT WEATHER AND/OR OBSTRUCTION TO VISIBILITY.


MIZ047>049-052>055-059>063-066>070-074>076-081>083-182200-
SOUTHEAST LOWER MICHIGAN
  
CITY           SKY/WX    TMP DP  RH WIND       PRES   REMARKS
ADRIAN         SUNNY     67  39  35 NW8       30.09S                  
ALMA           SUNNY     66  38  35 W8        30.07F                  
ANN ARBOR      SUNNY     66  39  37 NW12G20   30.08R                  
BAD AXE        SUNNY     59  40  49 W5        30.07F                  
CARO           SUNNY     63  42  46 CALM      30.07F                  
DETROIT CITY   SUNNY     66  38  35 W7        30.07F                  
DETROIT        SUNNY     66  38  35 NW8       30.08S                  
FLINT          SUNNY     66  40  38 W9        30.08S                  
GROSSE ILE     PTSUNNY   61  42  49 S5        30.07S                  
HILLSDALE      SUNNY     67  37  33 W7        30.10R                  
HOWELL         SUNNY     65  37  34 NW8       30.08S                  

CITY           SKY/WX    TMP DP  RH WIND       PRES   REMARKS
JACKSON        SUNNY     67  38  34 W8        30.09R                  
LAMBERTVILLE   SUNNY     69  38  32 NW6       30.08S                  
LANSING        SUNNY     67  38  34 NW13      30.08S                  
LAPEER         SUNNY     62  40  43 NW7       30.08S                  
MASON          SUNNY     67  38  35 W13G20    30.08S                  
MONROE         SUNNY     67  37  32 NW7       30.07S                  
MT. CLEMENS    SUNNY     63  42  47 W10       30.07R                  
PONTIAC        SUNNY     64  36  35 NW12      30.07R                  
PORT HURON     SUNNY     61  36  39 NW7       30.08R                  
TRI CITIES     SUNNY     65  40  39 W6        30.07F                  
MIDLAND        SUNNY     67  42  39 W5        30.06S                  
TROY           SUNNY     66  35  32 NW8       30.10S                  
SAGINAW HB     SUNNY     65  43  45 W6        30.07S                  
$$

SKY/WX - Weather  TMP - Temperature  DP - Dew Point  RH - Relative Humidity
WIND - Wind Direction/Speed PRES - Barometric Pressure VSB - Visibility
WCI - Wind Chill Index E13G22 Wind - East Wind 13 mph/Gusts of 22 mph